Regional Weather Roundup
Issued by NWS

Home | Current Version | Previous Version | Text Only | Print | Product List | Glossary On
Versions: 1 2 3 4 5 6 7 8 9 10 11 12 13 14 15 16 17 18 19 20 21 22 23 24 25 26 27 28 29 30 31 32 33 34 35 36 37 38 39 40 41 42 43 44 45 46 47 48 49 50
000
ASUS43 KFSD 201510
RWRSD

WEATHER ROUNDUP FOR SOUTH DAKOTA
NATIONAL WEATHER SERVICE SIOUX FALLS SD
1000 AM CDT FRI OCT 20 2017

NOTE: "FAIR" INDICATES FEW OR NO CLOUDS BELOW 12,000 FEET WITH NO
SIGNIFICANT WEATHER AND/OR OBSTRUCTIONS TO VISIBILITY.


SDZ001>005-009-010-012>017-201600-
NORTHWEST AND NORTH CENTRAL SOUTH DAKOTA

CITY           SKY/WX    TMP DP  RH WIND       PRES   REMARKS
BUFFALO          N/A     60  29  30 SW5       29.40F
MOBRIDGE       SUNNY     61  48  62 S18G24    29.49S
$$

SDZ012>016-024>037-041>051-057-063-072>074-201600-
SOUTHWEST AND SOUTH CENTRAL SOUTH DAKOTA

CITY           SKY/WX    TMP DP  RH WIND       PRES   REMARKS
RAPID CTY ARPT MOSUNNY   53  32  44 S7        29.54F
PIERRE         SUNNY     60  48  64 S14       29.54F
CUSTER         SUNNY     59  29  31 W7        29.67S
ELLSWORTH AFB  MOSUNNY   58  30  35 S10       29.52
PHILIP         MOSUNNY   61  47  59 S9        29.53S
PINE RIDGE     MOSUNNY   58  45  62 S8        29.62F
SPEARFISH      FAIR      68  32  26 SW26G35   29.51F
WINNER         FAIR      62  48  60 S25G37    29.62F
$$

SDZ004>011-016>023-039-040-201600-
NORTHEAST SOUTH DAKOTA

CITY           SKY/WX    TMP DP  RH WIND       PRES   REMARKS
ABERDEEN       SUNNY     61  49  64 S18G30    29.60F
WATERTOWN      CLOUDY    56  50  80 S18G25    29.70F
BROOKINGS      CLOUDY    58  50  75 S14       29.75F
SISSETON         N/A     66  49  54 S21G29    29.63F
$$

SDZ017-020-022-023-036>040-048>070-201600-
SOUTHEAST SOUTH DAKOTA

CITY           SKY/WX    TMP DP  RH WIND       PRES   REMARKS
SIOUX FALLS    MOSUNNY   62  52  69 S21G30    29.78F
HURON          SUNNY     59  49  69 S18G25    29.66F
CHAMBERLAIN    SUNNY     63  50  61 S21G29    29.63F
MITCHELL       SUNNY     61  50  67 S20       29.69F
YANKTON        CLOUDY    63  51  65 S17G26    29.77S
$$

ABBREVIATIONS USED IN REMARKS
   TC - TEMPERATURE IN CELSIUS
  WCI - WIND CHILL INDEX
   HX - HEAT INDEX
  VSB - VISIBILITY





USA.gov is the U.S. government's official web portal to all federal, state and local government web resources and services.